sat.trackr.live / text

‹ back to catalog

STARLINK-30926

NORAD 58448 · 2023-183M

PAYLOAD ACTIVE UNKNOWN

§ Identity

Operator
Country
US
Launch date
2023-11-28
Launch site
AFETR
Launch vehicle
Mass (kg)
RCS (m²)

Purposes: comms

External: N2YO · Heavens-Above · Gunter

§ Orbital elements

Epoch: 2026-09-20T15:18:41.372640Z

Period
94.27 min
Inclination
43.0025°
Eccentricity
0.0000349
Mean motion
15.27572884 rev/d
Perigee alt
482.8 km
Apogee alt
483.3 km
Semi-major
6,861.2 km
B*
-9.7287e-5
RAAN
20.2286°
Arg perigee
286.3976°
Mean anomaly
73.6838°
Rev number
15,655

§ Raw data

STARLINK-309261 58448U 23183M   26263.63797885 -.00002937  00000+0 -97287-4 0  99972 58448  43.0025  20.2286 0000349 286.3976  73.6838 15.27572884156558

JSON: /api/v1/satellites/58448 · /tle

For live sub-satellite position, see the globe view (requires WebGL).

§ Visibility from observer

Set your observer location to see the next 7 days of passes ≥ 10°. The values pass through the URL so the page stays shareable.

No JS? Fill the form by hand. The geolocation button needs JavaScript.